Location: D�pe
(52.6057°N, 8.1808°E)
Time: 07:57:25
(UTC+00:00)

Cosmos 1340 - Pass Details

Date: 29 October 2020
Orbit: 501 x 504 km, 81.2° (Epoch: 01 December)

Event Time Altitude Azimuth Distance (km) Brightness Sun altitude
Rises 17:19:09 0° 345° (NNW) 2,621 6.4 -12.1°
Reaches altitude 10° 17:21:17 10° 344° (NNW) 1,731 5.5 -12.5°
Maximum altitude 17:25:05 76° 260° (W) 528 2.8 -13.0°
Drops below altitude 10° 17:28:51 10° 174° (S) 1,717 5.3 -13.6°
Sets 17:30:57 0° 173° (S) 2,597 6.2 -13.9°
